TimeCDT,TemperatureF,Dew PointF,Humidity,Sea Level PressureIn,VisibilityMPH,Wind Direction,Wind SpeedMPH,Gust SpeedMPH,PrecipitationIn,Events,Conditions,WindDirDegrees,DateUTC
12:15 AM,46.4,42.8,87,29.98,8.0,NNW,6.9,-,N/A,,Overcast,330,2013-07-27 05:15:00
12:35 AM,46.4,42.8,87,29.97,10.0,NW,3.5,-,N/A,,Overcast,320,2013-07-27 05:35:00
12:55 AM,46.4,42.8,87,29.97,8.0,Calm,Calm,-,N/A,,Overcast,0,2013-07-27 05:55:00
1:15 AM,46.4,42.8,87,29.96,10.0,NW,3.5,-,N/A,,Overcast,310,2013-07-27 06:15:00
1:35 AM,46.4,42.8,87,29.95,10.0,NNW,5.8,-,N/A,,Overcast,330,2013-07-27 06:35:00
1:55 AM,46.4,42.8,87,29.94,8.0,NNW,4.6,-,N/A,,Overcast,340,2013-07-27 06:55:00
2:15 AM,46.4,42.8,87,29.94,10.0,WNW,3.5,-,N/A,,Mostly Cloudy,300,2013-07-27 07:15:00
2:35 AM,46.4,42.8,87,29.94,8.0,NW,5.8,-,N/A,,Overcast,310,2013-07-27 07:35:00
2:55 AM,46.4,42.8,87,29.93,5.0,NW,4.6,-,N/A,,Mostly Cloudy,320,2013-07-27 07:55:00
3:15 AM,46.4,42.8,87,29.92,5.0,WNW,5.8,-,N/A,,Overcast,290,2013-07-27 08:15:00
3:35 AM,46.4,42.8,87,29.92,4.0,WNW,6.9,-,N/A,,Overcast,300,2013-07-27 08:35:00
3:55 AM,46.4,44.6,93,29.91,6.0,WNW,9.2,-,N/A,,Overcast,300,2013-07-27 08:55:00
4:15 AM,46.4,44.6,93,29.90,3.0,NW,8.1,-,N/A,,Overcast,320,2013-07-27 09:15:00
4:35 AM,46.4,44.6,93,29.90,4.0,NW,9.2,-,N/A,,Mostly Cloudy,320,2013-07-27 09:35:00
4:55 AM,46.4,44.6,93,29.90,4.0,WNW,6.9,-,N/A,,Overcast,300,2013-07-27 09:55:00
5:15 AM,46.4,44.6,93,29.90,3.0,West,11.5,-,N/A,,Overcast,280,2013-07-27 10:15:00
5:35 AM,46.4,44.6,93,29.90,3.0,NW,9.2,-,N/A,,Overcast,310,2013-07-27 10:35:00
5:55 AM,46.4,44.6,93,29.90,7.0,NW,6.9,-,N/A,,Overcast,320,2013-07-27 10:55:00
6:15 AM,46.4,44.6,93,29.89,4.0,NW,4.6,-,N/A,,Overcast,320,2013-07-27 11:15:00
6:35 AM,46.4,44.6,93,29.89,2.5,NNW,5.8,-,N/A,,Overcast,330,2013-07-27 11:35:00
6:55 AM,48.2,44.6,87,29.88,3.0,NNW,6.9,-,N/A,,Overcast,330,2013-07-27 11:55:00
7:15 AM,48.2,46.4,93,29.88,3.0,NNW,6.9,-,N/A,,Overcast,330,2013-07-27 12:15:00
7:35 AM,48.2,44.6,87,29.87,4.0,NW,5.8,-,N/A,,Overcast,310,2013-07-27 12:35:00
7:55 AM,48.2,44.6,87,29.87,2.5,WNW,9.2,-,N/A,,Overcast,300,2013-07-27 12:55:00
8:15 AM,48.2,44.6,87,29.87,3.0,WNW,8.1,-,N/A,,Overcast,300,2013-07-27 13:15:00
8:35 AM,48.2,44.6,87,29.87,1.8,WNW,8.1,-,N/A,,Overcast,290,2013-07-27 13:35:00
8:55 AM,48.2,44.6,87,29.87,3.0,WNW,9.2,-,N/A,,Overcast,290,2013-07-27 13:55:00
9:15 AM,48.2,44.6,87,29.86,3.0,WNW,12.7,17.3,N/A,,Overcast,290,2013-07-27 14:15:00
9:35 AM,48.2,44.6,87,29.86,2.5,WNW,11.5,-,N/A,,Overcast,290,2013-07-27 14:35:00
9:55 AM,48.2,46.4,93,29.86,2.5,West,11.5,-,N/A,,Overcast,280,2013-07-27 14:55:00
10:15 AM,48.2,46.4,93,29.86,2.5,West,11.5,-,N/A,,Overcast,280,2013-07-27 15:15:00
10:35 AM,48.2,44.6,87,29.86,4.0,West,9.2,-,N/A,,Overcast,280,2013-07-27 15:35:00
10:55 AM,48.2,46.4,93,29.85,3.0,West,8.1,-,N/A,,Overcast,280,2013-07-27 15:55:00
11:15 AM,50.0,46.4,87,29.85,7.0,WNW,9.2,-,N/A,,Overcast,300,2013-07-27 16:15:00
11:35 AM,48.2,44.6,87,29.85,5.0,WNW,5.8,-,N/A,,Overcast,290,2013-07-27 16:35:00
11:55 AM,48.2,44.6,87,29.85,4.0,WNW,8.1,-,N/A,,Overcast,290,2013-07-27 16:55:00
12:15 PM,50.0,46.4,87,29.85,10.0,WNW,6.9,-,N/A,,Overcast,290,2013-07-27 17:15:00
12:35 PM,50.0,46.4,87,29.85,10.0,West,11.5,-,N/A,,Overcast,280,2013-07-27 17:35:00
12:55 PM,51.8,46.4,82,29.84,10.0,West,6.9,-,N/A,,Overcast,280,2013-07-27 17:55:00
1:15 PM,51.8,46.4,82,29.84,10.0,NW,6.9,-,N/A,,Mostly Cloudy,310,2013-07-27 18:15:00
1:35 PM,51.8,44.6,76,29.84,10.0,NW,6.9,-,N/A,,Overcast,310,2013-07-27 18:35:00
1:55 PM,50.0,44.6,82,29.84,3.0,West,8.1,-,N/A,,Overcast,270,2013-07-27 18:55:00
2:15 PM,50.0,46.4,87,29.83,10.0,NW,3.5,-,N/A,,Overcast,320,2013-07-27 19:15:00
2:35 PM,51.8,46.4,82,29.83,9.0,North,3.5,-,N/A,,Overcast,350,2013-07-27 19:35:00
2:55 PM,53.6,48.2,82,29.83,10.0,NNW,8.1,-,N/A,,Mostly Cloudy,330,2013-07-27 19:55:00
3:15 PM,53.6,46.4,77,29.83,10.0,NW,9.2,-,N/A,,Mostly Cloudy,320,2013-07-27 20:15:00
3:35 PM,53.6,44.6,72,29.83,10.0,NNW,5.8,-,N/A,,Overcast,340,2013-07-27 20:35:00
3:55 PM,53.6,44.6,72,29.83,10.0,North,6.9,-,N/A,,Overcast,350,2013-07-27 20:55:00
4:15 PM,51.8,46.4,82,29.84,10.0,North,8.1,-,N/A,,Overcast,350,2013-07-27 21:15:00
4:35 PM,53.6,44.6,72,29.84,10.0,North,6.9,-,N/A,,Overcast,350,2013-07-27 21:35:00
4:55 PM,53.6,44.6,72,29.84,10.0,North,10.4,-,N/A,,Mostly Cloudy,360,2013-07-27 21:55:00
5:15 PM,53.6,44.6,72,29.85,10.0,North,8.1,-,N/A,,Overcast,360,2013-07-27 22:15:00
5:35 PM,51.8,44.6,76,29.84,10.0,North,5.8,-,N/A,,Overcast,10,2013-07-27 22:35:00
5:55 PM,51.8,44.6,76,29.85,10.0,North,9.2,-,N/A,,Overcast,350,2013-07-27 22:55:00
6:15 PM,51.8,44.6,76,29.85,10.0,North,6.9,-,N/A,,Overcast,360,2013-07-27 23:15:00
6:35 PM,51.8,44.6,76,29.85,10.0,NNW,6.9,-,N/A,,Overcast,340,2013-07-27 23:35:00
6:55 PM,51.8,44.6,76,29.85,10.0,NNW,6.9,-,N/A,,Mostly Cloudy,340,2013-07-27 23:55:00
7:15 PM,51.8,44.6,76,29.85,10.0,NNW,4.6,-,N/A,,Partly Cloudy,330,2013-07-28 00:15:00
7:35 PM,51.8,44.6,76,29.85,10.0,North,5.8,-,N/A,,Mostly Cloudy,10,2013-07-28 00:35:00
7:55 PM,50.0,44.6,82,29.85,10.0,North,5.8,-,N/A,,Overcast,350,2013-07-28 00:55:00
8:15 PM,48.2,44.6,87,29.86,10.0,North,4.6,-,N/A,,Overcast,360,2013-07-28 01:15:00
8:35 PM,48.2,44.6,87,29.86,10.0,North,-9999.0,-,N/A,,Overcast,0,2013-07-28 01:35:00
8:55 PM,48.2,44.6,87,29.86,10.0,NNW,3.5,-,N/A,,Overcast,340,2013-07-28 01:55:00
9:15 PM,48.2,44.6,87,29.87,10.0,Calm,Calm,-,N/A,,Overcast,0,2013-07-28 02:15:00
9:35 PM,48.2,44.6,87,29.87,10.0,Calm,Calm,-,N/A,,Mostly Cloudy,0,2013-07-28 02:35:00
9:55 PM,48.2,44.6,87,29.87,10.0,NNW,3.5,-,N/A,,Mostly Cloudy,340,2013-07-28 02:55:00
10:15 PM,48.2,44.6,87,29.87,10.0,NNW,3.5,-,N/A,,Mostly Cloudy,340,2013-07-28 03:15:00
10:35 PM,48.2,44.6,87,29.87,10.0,NNW,3.5,-,N/A,,Overcast,330,2013-07-28 03:35:00
10:55 PM,48.2,44.6,87,29.87,10.0,NNW,3.5,-,N/A,,Overcast,330,2013-07-28 03:55:00
11:15 PM,48.2,44.6,87,29.88,10.0,NNW,3.5,-,N/A,,Overcast,330,2013-07-28 04:15:00
11:35 PM,48.2,44.6,87,29.88,10.0,NW,3.5,-,N/A,,Overcast,320,2013-07-28 04:35:00
11:55 PM,48.2,44.6,87,29.88,10.0,Calm,Calm,-,N/A,,Overcast,0,2013-07-28 04:55:00